Find PROBA-3 OSC

NORAD ID: 62258 Int'l Des: 2024-233 Owner: ESA Country: I-ESA
MEOELLIPTICALHEO_ELLIPTICAL

現在のビュー

3D地球を読み込み中...

About PROBA-3 OSC

PROBA-3 OSC (NORAD 62258) is a satellite launched Dec 5, 2024 by ESA of I-ESA. It operates in MEO, ELLIPTICAL, HEO_ELLIPTICAL orbit with a mass of 200.00 kg.

次回通過

Passes for default location (London). Set your location on the main map for personalized predictions.

高度履歴

Loading altitude history...

軌道要素

1 62258U 24233C 26185.50774909 -.00000317 00000-0 00000-0 0 9992
2 62258 59.7187 96.0232 8000228 206.0626 67.6161 1.22075363 7021
Epoch: Jul 4, 2026 • Age: 236 hours

現在のステータス

高度 42466.5 km
遠地点 / 近地点 N/A
速度 2.35 km/s
衛星直下点 1.46°N, 39.01°E
打ち上げ日 Dec 5, 2024
運用期間 1.6 years
タイプ other

技術仕様

分類 Payload
質量 200.00 kg
乾燥質量 200.00 kg
総質量 200.00 kg
長さ 1.40 m
直径 0.90 m
スパン 1.40 m
形状 Cyl
製造者 ADST
バスタイプ Myriade
フェーズステータス In Orbit
所有者/国 ESA/I-ESA

Most Searched